| time (UTC) | temp F | wind direction | speed MPH | gust MPH | rain 1hr in | rain 24hr in | rain mn in | humidity % | barometer mb |
| 20260903170027 | 93 | 246 | 6.0 | 12.0 | 0.00 | 0.00 | 0.00 | 53 | 1010.7 |
| 20260903164521 | 93 | 207 | 6.0 | 13.0 | 0.00 | 0.00 | 0.00 | 54 | 1010.9 |
| 20260903163018 | 92 | 278 | 5.0 | 11.0 | 0.00 | 0.00 | 0.00 | 57 | 1011.0 |
| 20260903161516 | 91 | 294 | 5.0 | 12.0 | 0.00 | 0.00 | 0.00 | 58 | 1011.2 |
| 20260903160017 | 90 | 219 | 5.0 | 15.0 | 0.00 | 0.00 | 0.00 | 59 | 1011.2 |
| 20260903154510 | 89 | 249 | 5.0 | 12.0 | 0.00 | 0.00 | 0.00 | 60 | 1011.2 |
| 20260903153008 | 89 | 238 | 5.0 | 12.0 | 0.00 | 0.00 | 0.00 | 61 | 1011.3 |
| 20260903151502 | 87 | 283 | 3.0 | 12.0 | 0.00 | 0.00 | 0.00 | 65 | 1011.3 |
| 20260903150101 | 86 | 251 | 4.0 | 10.0 | 0.00 | 0.00 | 0.00 | 67 | 1011.2 |
| 20260903144603 | 85 | 271 | 4.0 | 10.0 | 0.00 | 0.00 | 0.00 | 70 | 1011.1 |
| 20260903143104 | 83 | 277 | 5.0 | 10.0 | 0.00 | 0.00 | 0.00 | 71 | 1011.2 |
| 20260903141559 | 81 | 253 | 2.0 | 10.0 | 0.00 | 0.00 | 0.00 | 76 | 1011.2 |
| 20260903140046 | 79 | 223 | 3.0 | 6.0 | 0.00 | 0.00 | 0.00 | 80 | 1011.2 |
| 20260903134546 | 78 | 284 | 2.0 | 5.0 | 0.00 | 0.00 | 0.00 | 83 | 1011.2 |
| 20260903133043 | 77 | 220 | 1.0 | 4.0 | 0.00 | 0.00 | 0.00 | 83 | 1011.3 |
| 20260903131544 | 76 | 219 | 1.0 | 4.0 | 0.00 | 0.00 | 0.00 | 83 | 1011.2 |
| 20260903130039 | 75 | 222 | 1.0 | 5.0 | 0.00 | 0.00 | 0.00 | 82 | 1011.2 |
| 20260903124542 | 75 | 222 | 0.0 | 3.0 | 0.00 | 0.00 | 0.00 | 81 | 1011.1 |
| 20260903123038 | 75 | 222 | 0.0 | 3.0 | 0.00 | 0.00 | 0.00 | 81 | 1011.0 |
| 20260903121532 | 75 | 222 | 1.0 | 3.0 | 0.00 | 0.00 | 0.00 | 81 | 1011.0 |
| 20260903120028 | 75 | 222 | 0.0 | 1.0 | 0.00 | 0.00 | 0.00 | 80 | 1010.7 |
| 20260903114526 | 75 | 222 | 0.0 | 2.0 | 0.00 | 0.00 | 0.00 | 80 | 1010.5 |
| 20260903113028 | 75 | 222 | 0.0 | 2.0 | 0.00 | 0.00 | 0.00 | 79 | 1010.4 |
| 20260903111534 | 75 | 242 | 0.0 | 2.0 | 0.00 | 0.00 | 0.00 | 79 | 1010.3 |
| 20260903110021 | 75 | 242 | 0.0 | 0.0 | 0.00 | 0.00 | 0.00 | 78 | 1010.2 |
| 20260903104518 | 76 | 242 | 0.0 | 1.0 | 0.00 | 0.00 | 0.00 | 77 | 1010.1 |
| 20260903103016 | 76 | 242 | 0.0 | 1.0 | 0.00 | 0.00 | 0.00 | 77 | 1010.0 |
| 20260903101519 | 76 | 242 | 0.0 | 1.0 | 0.00 | 0.00 | 0.00 | 77 | 1010.0 |
| 20260903100015 | 77 | 242 | 0.0 | 2.0 | 0.00 | 0.00 | 0.00 | 77 | 1009.9 |
| 20260903094511 | 77 | 242 | 0.0 | 1.0 | 0.00 | 0.00 | 0.00 | 77 | 1009.9 |
| 20260903093014 | 77 | 242 | 0.0 | 3.0 | 0.00 | 0.00 | 0.00 | 77 | 1009.9 |
| 20260903091512 | 78 | 242 | 0.0 | 1.0 | 0.00 | 0.00 | 0.00 | 77 | 1009.8 |
| 20260903090007 | 78 | 242 | 0.0 | 2.0 | 0.00 | 0.00 | 0.00 | 77 | 1009.9 |
| 20260903084506 | 78 | 242 | 0.0 | 2.0 | 0.00 | 0.00 | 0.00 | 77 | 1009.9 |
| 20260903083005 | 78 | 242 | 0.0 | 1.0 | 0.00 | 0.00 | 0.00 | 77 | 1009.8 |
| 20260903081508 | 79 | 242 | 0.0 | 2.0 | 0.00 | 0.00 | 0.00 | 77 | 1009.7 |
| 20260903080006 | 79 | 242 | 0.0 | 2.0 | 0.00 | 0.00 | 0.00 | 77 | 1009.8 |
| 20260903074504 | 79 | 242 | 0.0 | 3.0 | 0.00 | 0.00 | 0.00 | 78 | 1009.8 |
| 20260903073002 | 79 | 243 | 0.0 | 3.0 | 0.00 | 0.00 | 0.00 | 78 | 1009.8 |
| 20260903071607 | 79 | 244 | 0.0 | 0.0 | 0.00 | 0.00 | 0.00 | 78 | 1009.9 |
| 20260903064558 | 79 | 244 | 0.0 | 2.0 | 0.00 | 0.00 | 0.00 | 77 | 1010.0 |
| 20260903063119 | 79 | 244 | 0.0 | 0.0 | 0.00 | 0.00 | 0.00 | 77 | 1010.0 |
| 20260903061555 | 79 | 244 | 0.0 | 2.0 | 0.00 | 0.00 | 0.00 | 76 | 1009.9 |
| 20260903060059 | 80 | 244 | 0.0 | 2.0 | 0.00 | 0.00 | 0.00 | 76 | 1009.9 |
| 20260903054551 | 80 | 244 | 0.0 | 0.0 | 0.00 | 0.00 | 0.00 | 75 | 1009.9 |
| 20260903053049 | 80 | 244 | 0.0 | 0.0 | 0.00 | 0.00 | 0.00 | 74 | 1009.8 |
| 20260903051548 | 81 | 244 | 0.0 | 1.0 | 0.00 | 0.00 | 0.00 | 74 | 1009.9 |
| 20260903050106 | 81 | 244 | 0.0 | 2.0 | 0.00 | 0.00 | 0.00 | 74 | 1009.8 |
| 20260903044545 | 81 | 244 | 0.0 | 2.0 | 0.00 | 0.00 | 0.00 | 74 | 1009.8 |
| 20260903043044 | 81 | 244 | 0.0 | 2.0 | 0.00 | 0.00 | 0.00 | 73 | 1009.8 |
| 20260903041544 | 81 | 244 | 0.0 | 2.0 | 0.00 | 0.00 | 0.00 | 73 | 1009.8 |
| 20260903040049 | 82 | 244 | 0.0 | 2.0 | 0.00 | 0.00 | 0.00 | 72 | 1009.8 |
| 20260903034542 | 82 | 244 | 0.0 | 0.0 | 0.00 | 0.00 | 0.00 | 71 | 1009.9 |
| 20260903033042 | 83 | 244 | 0.0 | 0.0 | 0.00 | 0.00 | 0.00 | 69 | 1010.0 |
| 20260903031541 | 83 | 244 | 0.0 | 0.0 | 0.00 | 0.00 | 0.00 | 69 | 1010.0 |
| 20260903030041 | 84 | 244 | 0.0 | 0.0 | 0.00 | 0.00 | 0.00 | 69 | 1010.0 |
| 20260903024541 | 84 | 244 | 0.0 | 0.0 | 0.00 | 0.00 | 0.00 | 67 | 1009.9 |
| 20260903023043 | 85 | 244 | 0.0 | 0.0 | 0.00 | 0.00 | 0.00 | 66 | 1009.8 |
| 20260903021540 | 85 | 244 | 0.0 | 2.0 | 0.00 | 0.00 | 0.00 | 65 | 1009.7 |
| 20260903020044 | 86 | 244 | 0.0 | 2.0 | 0.00 | 0.00 | 0.00 | 63 | 1009.6 |
| 20260903014545 | 87 | 244 | 0.0 | 0.0 | 0.00 | 0.00 | 0.00 | 62 | 1009.4 |
| 20260903013038 | 88 | 244 | 0.0 | 0.0 | 0.00 | 0.00 | 0.00 | 60 | 1009.3 |
| 20260903011554 | 90 | 244 | 0.0 | 0.0 | 0.00 | 0.00 | 0.00 | 58 | 1009.1 |
| 20260903010035 | 91 | 244 | 0.0 | 0.0 | 0.00 | 0.00 | 0.00 | 55 | 1009.1 |
| 20260903004536 | 93 | 244 | 0.0 | 0.0 | 0.00 | 0.00 | 0.00 | 53 | 1009.1 |
| 20260903003033 | 95 | 244 | 0.0 | 0.0 | 0.00 | 0.00 | 0.00 | 51 | 1009.1 |
| 20260903001535 | 96 | 244 | 0.0 | 0.0 | 0.00 | 0.00 | 0.00 | 51 | 1009.2 |
| 20260903000033 | 97 | 244 | 0.0 | 0.0 | 0.00 | 0.00 | 0.00 | 49 | 1009.2 |
| 20260902234538 | 98 | 244 | 0.0 | 0.0 | 0.00 | 0.00 | 0.00 | 48 | 1009.1 |
| 20260902233032 | 99 | 244 | 0.0 | 2.0 | 0.00 | 0.00 | 0.00 | 48 | 1009.1 |
| 20260902231543 | 99 | 244 | 0.0 | 2.0 | 0.00 | 0.00 | 0.00 | 47 | 1009.2 |
| 20260902230031 | 100 | 244 | 1.0 | 4.0 | 0.00 | 0.00 | 0.00 | 45 | 1009.2 |
| 20260902224523 | 100 | 245 | 0.0 | 4.0 | 0.00 | 0.00 | 0.00 | 46 | 1009.2 |
| 20260902223021 | 100 | 247 | 1.0 | 5.0 | 0.00 | 0.00 | 0.00 | 44 | 1009.3 |
| 20260902221520 | 100 | 246 | 2.0 | 9.0 | 0.00 | 0.00 | 0.00 | 42 | 1009.4 |
| 20260902220014 | 101 | 238 | 3.0 | 9.0 | 0.00 | 0.00 | 0.00 | 42 | 1009.6 |
| 20260902214511 | 0 | 0.0 | 0.0 | 0.00 | 0.00 | 0.00 | 1009.7 | ||
| 20260902213007 | 0 | 0.0 | 0.0 | 0.00 | 0.00 | 0.00 | 1009.7 | ||
| 20260902211502 | 0 | 0.0 | 0.0 | 0.00 | 0.00 | 0.00 | 1009.8 | ||
| 20260902210058 | 0 | 0.0 | 0.0 | 0.00 | 0.00 | 0.00 | 1009.9 | ||
| 20260902204554 | 0 | 0.0 | 0.0 | 0.00 | 0.00 | 0.00 | 1010.1 | ||
| 20260902203049 | 0 | 0.0 | 0.0 | 0.00 | 0.00 | 0.00 | 1010.1 | ||
| 20260902201547 | 100 | 250 | 3.0 | 12.0 | 0.00 | 0.00 | 0.00 | 44 | 1010.2 |
| 20260902200043 | 99 | 275 | 4.0 | 12.0 | 0.00 | 0.00 | 0.00 | 44 | 1010.3 |
| 20260902194543 | 99 | 243 | 5.0 | 14.0 | 0.00 | 0.00 | 0.00 | 44 | 1010.5 |
| 20260902193041 | 99 | 244 | 4.0 | 11.0 | 0.00 | 0.00 | 0.00 | 44 | 1010.7 |
| 20260902191540 | 99 | 314 | 4.0 | 11.0 | 0.00 | 0.00 | 0.00 | 44 | 1010.8 |
| 20260902190036 | 99 | 277 | 4.0 | 8.0 | 0.00 | 0.00 | 0.00 | 47 | 1011.0 |
| 20260902184531 | 98 | 277 | 3.0 | 9.0 | 0.00 | 0.00 | 0.00 | 47 | 1011.1 |
| 20260902183028 | 98 | 248 | 3.0 | 9.0 | 0.00 | 0.00 | 0.00 | 47 | 1011.3 |
| 20260902181523 | 97 | 232 | 3.0 | 10.0 | 0.00 | 0.00 | 0.00 | 49 | 1011.4 |
| 20260902180019 | 96 | 295 | 3.0 | 11.0 | 0.00 | 0.00 | 0.00 | 51 | 1011.6 |
| 20260902174517 | 96 | 291 | 6.0 | 12.0 | 0.00 | 0.00 | 0.00 | 50 | 1011.9 |
| 20260902173011 | 95 | 238 | 5.0 | 11.0 | 0.00 | 0.00 | 0.00 | 51 | 1012.1 |